Home   Weather   Columbus Park   Past weeks
Flag for USA

Past Weather in Columbus Park, Pennsylvania, USA — Yesterday and Last 2 Weeks

Now
21 °F

Scattered clouds.


Feels Like: 6 °F
Forecast: 28 / 23 °F
Wind: 18 mph from Southwest

Location: Erie International Airport

Current Time: Dec 11, 2019 at 9:53:03 am

Latest Report: Dec 11, 2019 at 8:58 am


Visibility: 10 mi

Pressure: 30.29 "Hg

Humidity: 60%

Dew Point: 9 °F

Location of Columbus ParkLocation

Past Weather in Columbus Park — Graph

°F

Columbus Park Temperature Yesterday

Maximum temperature yesterday: 52 °F (at 1:51 am)
Minimum temperature yesterday: 27 °F (at 11:39 pm)
Average temperature yesterday: 36 °F

High & Low Weather Summary for the Past Weeks

 TemperatureHumidityPressure
High56 °F (Nov 27, 12:51 pm)89% (Nov 28, 1:51 am)30.46 "Hg (Nov 28, 1:51 am)
Low20 °F (Dec 11, 7:51 am)43% (Dec 1, 1:51 am)29.36 "Hg (Dec 1, 12:51 pm)
Average38 °F72%29.91 "Hg
* Reported Nov 26 7:51 am — Dec 11 7:51 am, Columbus Park. Weather by CustomWeather, © 2019

Note: Actual official high and low records may vary slightly from our data, if they occured in-between our weather recording intervals... More about our weather records

Columbus Park Weather History for the Previous 24 Hours

Scroll right to see more
 ConditionsComfort  
Time TempWeatherWind HumidityBarometerVisibility
7:51 am
Wed, Dec 11
20 °FScattered clouds.15 mph65%30.31 "Hg10 mi
6:51 am21 °FPassing clouds.16 mph68%30.29 "Hg10 mi
5:51 am22 °FPassing clouds.16 mph68%30.27 "Hg10 mi
4:51 am23 °FOvercast.13 mph72%30.27 "Hg10 mi
3:51 am25 °FLight snow. Overcast.12 mph69%30.26 "Hg9 mi
2:51 am26 °FMostly cloudy.10 mph69%30.25 "Hg10 mi
2:33 am26 °FLight snow. Overcast.10 mph74%30.22 "Hg6 mi
2:23 am25 °FLight snow. Overcast.13 mph81%30.22 "Hg2 mi
2:02 am25 °FLight snow. Ice fog.8 mph85%30.22 "Hg1 mi
1:27 am26 °FLight snow. Ice fog.12 mph84%30.20 "Hg1 mi
12:54 am26 °FSnow. Ice fog.12 mph84%30.20 "Hg1 mi
12:37 am26 °FLight snow. Ice fog.15 mph84%30.21 "Hg1 mi
12:19 am27 °FLight snow. Ice fog.15 mph85%30.21 "Hg1 mi
11:39 pm
Tue, Dec 10
27 °FSnow. Ice fog.9 mph89%30.21 "Hg0 mi
11:20 pm28 °FLight snow. Ice fog.7 mph85%30.21 "Hg1 mi
11:12 pm29 °FLight snow. Ice fog.5 mph85%30.21 "Hg1 mi
11:05 pm28 °FLight snow. Ice fog.7 mph89%30.21 "Hg2 mi
10:32 pm28 °FLight snow. Ice fog.10 mph85%30.19 "Hg1 mi
10:24 pm28 °FSnow. Ice fog.10 mph89%30.20 "Hg1 mi
10:13 pm29 °FLight snow. Mostly cloudy.13 mph82%30.20 "Hg1 mi
10:00 pm29 °FLight snow. Ice fog.5 mph85%30.19 "Hg2 mi
9:24 pm29 °FSnow. Ice fog.9 mph85%30.19 "Hg1 mi
9:20 pm29 °FLight snow. Ice fog.10 mph85%30.19 "Hg1 mi
9:13 pm29 °FLight snow. Ice fog.10 mph85%30.19 "Hg2 mi
9:00 pm29 °FLight snow. Ice fog.10 mph85%30.18 "Hg5 mi
8:36 pm29 °FLight snow. Ice fog.12 mph89%30.17 "Hg1 mi
8:00 pm29 °FLight snow. Ice fog.9 mph89%30.16 "Hg2 mi
6:51 pm30 °FLight snow. Ice fog.5 mph85%30.15 "Hg1 mi
6:35 pm30 °FLight snow. Ice fog.9 mph85%30.13 "Hg1 mi
5:51 pm32 °FLight snow. Overcast.13 mph59%30.11 "Hg9 mi
5:12 pm31 °FLight snow. Mostly cloudy.9 mph76%30.07 "Hg3 mi
4:51 pm32 °FLight snow. Mostly cloudy.14 mph75%30.07 "Hg5 mi
4:31 pm33 °FLight snow. Cloudy.12 mph66%30.05 "Hg6 mi
4:19 pm32 °FLight snow. Mostly cloudy.17 mph79%30.04 "Hg1 mi
3:57 pm32 °FLight snow. Mostly cloudy.6 mph79%30.03 "Hg2 mi
3:42 pm33 °FLight snow. Cloudy.10 mph78%30.02 "Hg3 mi
3:23 pm33 °FLight snow. Overcast.12 mph82%30.00 "Hg2 mi
3:02 pm33 °FLight snow. Mostly cloudy.12 mph82%29.98 "Hg1 mi
2:51 pm34 °FLight snow. More clouds than sun.13 mph79%29.98 "Hg4 mi
1:51 pm33 °FSnow. Fog.15 mph88%29.98 "Hg0 mi
1:25 pm35 °FLight snow. Cloudy.12 mph78%29.95 "Hg2 mi
12:51 pm36 °FLight snow. Mostly cloudy.13 mph67%29.91 "Hg6 mi
11:51 am37 °FMostly cloudy.13 mph65%29.92 "Hg10 mi
10:51 am38 °FMore clouds than sun.17 mph65%29.92 "Hg10 mi
9:51 am38 °FMostly cloudy.17 mph68%29.87 "Hg10 mi
Weather by CustomWeather, © 2019

See weather overview

Advertising